^^
Saratoga-Weather Station Historical Data
Daily Summary for June 08, 2021 Units:  Metric    English   Both
Daily Weekly Monthly Yearly Custom
  High: Low: Average:
Temperature: 25.7 °C 16.2 °C 19.9 °C
Dew Point: 18.3 °C 13.5 °C 15.5 °C
Humidity: 95% 57% 77%
Wind Speed: 13km/h 0km/h 2.2km/h
Wind Gust: 14.5km/h - -
Wind- - SSW
Pressure: 1021.3 hPa 1019.0 hPa -
Precipitation: 1.3 mm    
Historical Graphs
 
 
Tabular Data for June 08, 2021
Time Temperature Dew Point Pressure Wind Wind Speed Wind Gust Humidity Rainfall Rate (Hourly) solar
00:01 17.9 °C 14.8 °C 1021.0 hPa Calm   3.2 km/h 82% 0.0 mm 0 W/m2
00:06 17.9 °C 14.8 °C 1021.0 hPa NE 1.4 km/h 3.2 km/h 82% 0.0 mm 0 W/m2
00:11 17.8 °C 14.9 °C 1021.0 hPa WNW 1.4 km/h 4.8 km/h 83% 0.0 mm 0 W/m2
00:16 17.8 °C 14.9 °C 1021.0 hPa Calm   3.2 km/h 83% 0.0 mm 0 W/m2
00:21 17.8 °C 14.9 °C 1021.0 hPa Calm   3.2 km/h 83% 0.0 mm 0 W/m2
00:26 17.7 °C 14.8 °C 1021.0 hPa Calm   3.2 km/h 83% 0.0 mm 0 W/m2
00:31 17.7 °C 14.8 °C 1021.0 hPa Calm   1.6 km/h 83% 0.0 mm 0 W/m2
00:36 17.7 °C 14.8 °C 1021.0 hPa NE 3.2 km/h 4.8 km/h 83% 0.0 mm 0 W/m2
00:41 17.6 °C 14.7 °C 1021.0 hPa Calm   3.2 km/h 83% 0.0 mm 0 W/m2
00:46 17.6 °C 14.9 °C 1021.0 hPa Calm     84% 0.0 mm 0 W/m2
00:51 17.5 °C 14.8 °C 1021.0 hPa NE 1.4 km/h 1.6 km/h 84% 0.0 mm 0 W/m2
00:56 17.4 °C 14.7 °C 1021.0 hPa SE 3.2 km/h 3.2 km/h 84% 0.0 mm 0 W/m2
01:01 17.4 °C 14.7 °C 1021.0 hPa Calm   1.6 km/h 84% 0.0 mm 0 W/m2
01:06 17.4 °C 14.7 °C 1020.7 hPa NW 1.4 km/h 3.2 km/h 84% 0.0 mm 0 W/m2
01:11 17.4 °C 14.7 °C 1020.7 hPa WNW 4.7 km/h 4.8 km/h 84% 0.0 mm 0 W/m2
01:16 17.4 °C 14.7 °C 1020.7 hPa Calm     84% 0.0 mm 0 W/m2
01:21 17.4 °C 14.7 °C 1020.7 hPa NNW 4.7 km/h 6.4 km/h 84% 0.0 mm 0 W/m2
01:26 17.4 °C 14.7 °C 1020.7 hPa NNW 4.7 km/h 4.8 km/h 84% 0.0 mm 0 W/m2
01:31 17.4 °C 14.7 °C 1020.7 hPa NNW 1.4 km/h 4.8 km/h 84% 0.0 mm 0 W/m2
01:36 17.4 °C 14.7 °C 1020.7 hPa West 3.2 km/h 3.2 km/h 84% 0.0 mm 0 W/m2
01:41 17.4 °C 14.7 °C 1020.7 hPa NW 1.4 km/h 4.8 km/h 84% 0.0 mm 0 W/m2
01:46 17.4 °C 14.7 °C 1020.7 hPa Calm   3.2 km/h 84% 0.0 mm 0 W/m2
01:51 17.3 °C 14.6 °C 1020.7 hPa Calm   1.6 km/h 84% 0.0 mm 0 W/m2
01:56 17.3 °C 14.6 °C 1020.7 hPa Calm   4.8 km/h 84% 0.0 mm 0 W/m2
02:01 17.3 °C 14.6 °C 1020.7 hPa Calm   1.6 km/h 84% 0.0 mm 0 W/m2
02:06 17.3 °C 14.6 °C 1020.7 hPa Calm   3.2 km/h 84% 0.0 mm 0 W/m2
02:11 17.2 °C 14.3 °C 1020.7 hPa Calm   3.2 km/h 83% 0.0 mm 0 W/m2
02:16 17.2 °C 14.3 °C 1020.7 hPa Calm   1.6 km/h 83% 0.0 mm 0 W/m2
02:21 17.2 °C 14.3 °C 1020.7 hPa Calm   1.6 km/h 83% 0.0 mm 0 W/m2
02:26 17.1 °C 14.2 °C 1020.7 hPa Calm   3.2 km/h 83% 0.0 mm 0 W/m2
02:31 17.1 °C 14.4 °C 1020.7 hPa Calm     84% 0.0 mm 0 W/m2
02:36 17 °C 14.3 °C 1020.7 hPa SSE 3.2 km/h 3.2 km/h 84% 0.0 mm 0 W/m2
02:41 16.9 °C 14.4 °C 1020.7 hPa ESE 1.4 km/h 3.2 km/h 85% 0.0 mm 0 W/m2
02:46 16.8 °C 14.3 °C 1020.7 hPa Calm     85% 0.0 mm 0 W/m2
02:51 16.8 °C 14.1 °C 1020.7 hPa Calm   1.6 km/h 84% 0.0 mm 0 W/m2
02:56 16.9 °C 14.4 °C 1020.7 hPa Calm   3.2 km/h 85% 0.0 mm 0 W/m2
03:01 16.8 °C 14.3 °C 1020.7 hPa Calm   1.6 km/h 85% 0.0 mm 0 W/m2
03:06 16.9 °C 14.2 °C 1020.7 hPa ENE 1.4 km/h 3.2 km/h 84% 0.0 mm 0 W/m2
03:11 16.9 °C 14.2 °C 1020.7 hPa Calm   1.6 km/h 84% 0.0 mm 0 W/m2
03:16 16.9 °C 14.2 °C 1020.7 hPa Calm     84% 0.0 mm 0 W/m2
03:21 16.9 °C 14.4 °C 1020.3 hPa Calm     85% 0.0 mm 0 W/m2
03:27 16.8 °C 14.3 °C 1020.3 hPa Calm     85% 0.0 mm 0 W/m2
03:32 16.8 °C 14.3 °C 1020.3 hPa ENE 1.4 km/h 1.6 km/h 85% 0.0 mm 0 W/m2
03:37 16.8 °C 14.1 °C 1020.3 hPa Calm     84% 0.0 mm 0 W/m2
03:42 16.8 °C 14.3 °C 1020.3 hPa Calm   3.2 km/h 85% 0.0 mm 0 W/m2
03:47 16.8 °C 14.3 °C 1020.3 hPa East 1.4 km/h 3.2 km/h 85% 0.0 mm 0 W/m2
03:52 16.8 °C 14.3 °C 1020.3 hPa NE 3.2 km/h 3.2 km/h 85% 0.0 mm 0 W/m2
03:57 16.8 °C 14.3 °C 1020.3 hPa NE 1.4 km/h 1.6 km/h 85% 0.0 mm 0 W/m2
04:02 16.8 °C 14.3 °C 1020.3 hPa Calm     85% 0.0 mm 0 W/m2
04:07 16.7 °C 14.2 °C 1020.3 hPa NE 1.4 km/h 1.6 km/h 85% 0.0 mm 0 W/m2
04:12 16.6 °C 14.1 °C 1020.3 hPa South 1.4 km/h 3.2 km/h 85% 0.0 mm 0 W/m2
04:17 16.6 °C 14.1 °C 1020.3 hPa Calm   3.2 km/h 85% 0.0 mm 0 W/m2
04:22 16.6 °C 14.1 °C 1020.7 hPa West 1.4 km/h 1.6 km/h 85% 0.0 mm 0 W/m2
04:27 16.6 °C 14.1 °C 1020.7 hPa Calm     85% 0.0 mm 0 W/m2
04:32 16.6 °C 14.1 °C 1020.7 hPa East 3.2 km/h 4.8 km/h 85% 0.0 mm 0 W/m2
04:37 16.5 °C 14 °C 1020.7 hPa Calm   1.6 km/h 85% 0.0 mm 0 W/m2
04:42 16.5 °C 14 °C 1020.7 hPa Calm     85% 0.0 mm 0 W/m2
04:47 16.4 °C 13.9 °C 1020.7 hPa WSW 1.4 km/h 3.2 km/h 85% 0.0 mm 0 W/m2
04:52 16.3 °C 13.8 °C 1020.7 hPa Calm   3.2 km/h 85% 0.0 mm 0 W/m2
04:57 16.3 °C 13.8 °C 1020.7 hPa WSW 1.4 km/h 3.2 km/h 85% 0.0 mm 0 W/m2
05:02 16.3 °C 13.8 °C 1020.7 hPa Calm   3.2 km/h 85% 0.0 mm 0 W/m2
05:07 16.3 °C 13.8 °C 1020.7 hPa Calm   3.2 km/h 85% 0.0 mm 0 W/m2
05:12 16.3 °C 14 °C 1020.7 hPa Calm     86% 0.0 mm 0 W/m2
05:17 16.2 °C 13.9 °C 1020.7 hPa Calm   1.6 km/h 86% 0.0 mm 0 W/m2
05:22 16.2 °C 13.9 °C 1021.0 hPa Calm   1.6 km/h 86% 0.0 mm 0 W/m2
05:27 16.2 °C 13.9 °C 1021.0 hPa Calm     86% 0.0 mm 0 W/m2
05:32 16.2 °C 13.9 °C 1021.0 hPa West 4.7 km/h 6.4 km/h 86% 0.0 mm 0 W/m2
05:37 16.2 °C 13.7 °C 1021.0 hPa WNW 1.4 km/h 3.2 km/h 85% 0.0 mm 0 W/m2
05:42 16.2 °C 13.7 °C 1020.7 hPa Calm   1.6 km/h 85% 0.0 mm 5 W/m2
05:47 16.3 °C 13.6 °C 1021.0 hPa WNW 3.2 km/h 3.2 km/h 84% 0.0 mm 5 W/m2
05:52 16.3 °C 13.6 °C 1021.0 hPa West 3.2 km/h 11.3 km/h 84% 0.0 mm 7 W/m2
05:57 16.4 °C 13.7 °C 1021.0 hPa WSW 1.4 km/h 3.2 km/h 84% 0.0 mm 9 W/m2
06:02 16.4 °C 13.5 °C 1021.0 hPa Calm   11.3 km/h 83% 0.0 mm 12 W/m2
06:07 16.4 °C 13.5 °C 1021.0 hPa WSW 1.4 km/h 3.2 km/h 83% 0.0 mm 21 W/m2
06:12 16.4 °C 13.5 °C 1021.0 hPa West 1.4 km/h 3.2 km/h 83% 0.0 mm 25 W/m2
06:17 16.5 °C 13.6 °C 1021.0 hPa WNW 1.4 km/h 1.6 km/h 83% 0.0 mm 26 W/m2
06:22 16.5 °C 13.6 °C 1021.0 hPa Calm   3.2 km/h 83% 0.0 mm 21 W/m2
06:27 16.4 °C 13.5 °C 1021.0 hPa WNW 1.4 km/h 1.6 km/h 83% 0.0 mm 18 W/m2
06:32 16.4 °C 13.7 °C 1021.0 hPa West 4.7 km/h 4.8 km/h 84% 0.0 mm 16 W/m2
06:37 16.4 °C 13.5 °C 1021.0 hPa Calm   1.6 km/h 83% 0.0 mm 18 W/m2
06:42 16.5 °C 13.6 °C 1021.0 hPa West 3.2 km/h 4.8 km/h 83% 0.0 mm 21 W/m2
06:47 16.6 °C 13.7 °C 1021.0 hPa WNW 1.4 km/h 3.2 km/h 83% 0.0 mm 26 W/m2
06:52 16.6 °C 13.7 °C 1021.0 hPa Calm     83% 0.0 mm 32 W/m2
06:57 16.6 °C 13.7 °C 1021.0 hPa Calm   3.2 km/h 83% 0.0 mm 44 W/m2
07:02 16.6 °C 13.7 °C 1021.0 hPa Calm   4.8 km/h 83% 0.0 mm 70 W/m2
07:07 16.7 °C 13.8 °C 1021.0 hPa ENE 1.4 km/h 4.8 km/h 83% 0.0 mm 83 W/m2
07:12 16.8 °C 13.9 °C 1021.0 hPa Calm     83% 0.0 mm 88 W/m2
07:17 16.8 °C 13.7 °C 1021.0 hPa NE 1.4 km/h 6.4 km/h 82% 0.0 mm 102 W/m2
07:22 16.9 °C 13.8 °C 1021.0 hPa ENE 3.2 km/h 4.8 km/h 82% 0.0 mm 118 W/m2
07:27 17 °C 13.7 °C 1021.3 hPa North 4.7 km/h 6.4 km/h 81% 0.0 mm 107 W/m2
07:32 17.1 °C 13.8 °C 1021.3 hPa NE 1.4 km/h 3.2 km/h 81% 0.0 mm 93 W/m2
07:37 17.1 °C 13.8 °C 1021.3 hPa WNW 1.4 km/h 4.8 km/h 81% 0.0 mm 95 W/m2
07:42 17.1 °C 13.8 °C 1021.3 hPa WNW 3.2 km/h 3.2 km/h 81% 0.0 mm 90 W/m2
07:47 17.2 °C 13.9 °C 1021.3 hPa WSW 1.4 km/h 3.2 km/h 81% 0.0 mm 95 W/m2
07:52 17.2 °C 13.9 °C 1021.3 hPa WNW 4.7 km/h 11.3 km/h 81% 0.0 mm 95 W/m2
07:57 17.2 °C 13.9 °C 1021.3 hPa North 3.2 km/h 8 km/h 81% 0.0 mm 95 W/m2
08:02 17.2 °C 13.9 °C 1021.3 hPa NW 3.2 km/h 11.3 km/h 81% 0.0 mm 111 W/m2
08:07 17.2 °C 13.9 °C 1021.3 hPa Calm   4.8 km/h 81% 0.0 mm 128 W/m2
08:12 17.3 °C 14 °C 1021.3 hPa NE 3.2 km/h 4.8 km/h 81% 0.0 mm 146 W/m2
08:17 17.4 °C 14.1 °C 1021.0 hPa NNE 1.4 km/h 1.6 km/h 81% 0.0 mm 171 W/m2
08:22 17.5 °C 14.2 °C 1021.0 hPa ESE 3.2 km/h 6.4 km/h 81% 0.0 mm 206 W/m2
08:27 17.7 °C 14.2 °C 1021.0 hPa Calm   6.4 km/h 80% 0.0 mm 211 W/m2
08:32 17.9 °C 14.4 °C 1021.0 hPa NE 4.7 km/h 4.8 km/h 80% 0.0 mm 171 W/m2
08:37 18 °C 14.5 °C 1021.0 hPa ESE 1.4 km/h 6.4 km/h 80% 0.0 mm 144 W/m2
08:42 18.2 °C 14.5 °C 1021.0 hPa North 4.7 km/h 6.4 km/h 79% 0.0 mm 144 W/m2
08:47 18.3 °C 14.4 °C 1021.0 hPa WNW 3.2 km/h 4.8 km/h 78% 0.0 mm 186 W/m2
08:52 18.4 °C 14.7 °C 1021.0 hPa WNW 4.7 km/h 6.4 km/h 79% 0.0 mm 211 W/m2
08:57 18.4 °C 14.7 °C 1021.0 hPa WNW 4.7 km/h 4.8 km/h 79% 0.0 mm 188 W/m2
09:02 18.6 °C 14.7 °C 1021.3 hPa ENE 1.4 km/h 9.7 km/h 78% 0.0 mm 165 W/m2
09:07 18.5 °C 14.6 °C 1021.3 hPa Calm   3.2 km/h 78% 0.0 mm 162 W/m2
09:12 18.4 °C 14.5 °C 1021.3 hPa Calm   9.7 km/h 78% 0.0 mm 220 W/m2
09:17 18.4 °C 14.7 °C 1021.3 hPa NNW 3.2 km/h 3.2 km/h 79% 0.0 mm 213 W/m2
09:22 18.4 °C 14.7 °C 1021.3 hPa Calm   3.2 km/h 79% 0.0 mm 195 W/m2
09:27 18.5 °C 15 °C 1021.3 hPa ESE 3.2 km/h 4.8 km/h 80% 0.0 mm 193 W/m2
09:32 18.6 °C 14.9 °C 1021.3 hPa ENE 6.4 km/h 6.4 km/h 79% 0.0 mm 179 W/m2
09:37 18.6 °C 14.9 °C 1021.3 hPa NW 4.7 km/h 6.4 km/h 79% 0.0 mm 199 W/m2
09:42 18.6 °C 15.1 °C 1021.0 hPa NW 1.4 km/h 4.8 km/h 80% 0.0 mm 318 W/m2
09:47 18.6 °C 14.9 °C 1021.0 hPa ESE 1.4 km/h 6.4 km/h 79% 0.0 mm 195 W/m2
09:52 18.8 °C 15.1 °C 1021.0 hPa West 4.7 km/h 6.4 km/h 79% 0.0 mm 575 W/m2
09:57 18.9 °C 15 °C 1021.0 hPa Calm   6.4 km/h 78% 0.0 mm 584 W/m2
10:02 19.3 °C 15.6 °C 1021.3 hPa East 4.7 km/h 8 km/h 79% 0.0 mm 536 W/m2
10:07 19.6 °C 15.5 °C 1021.0 hPa WNW 3.2 km/h 6.4 km/h 77% 0.0 mm 149 W/m2
10:12 19.7 °C 15.3 °C 1021.3 hPa North 1.4 km/h 8 km/h 76% 0.0 mm 230 W/m2
10:17 19.8 °C 15.4 °C 1021.3 hPa WNW 4.7 km/h 8 km/h 76% 0.0 mm 631 W/m2
10:22 20.1 °C 15.7 °C 1021.0 hPa NE 4.7 km/h 9.7 km/h 76% 0.0 mm 631 W/m2
10:27 20.4 °C 16 °C 1021.0 hPa ENE 3.2 km/h 4.8 km/h 76% 0.0 mm 643 W/m2
10:32 20.8 °C 15.8 °C 1021.0 hPa WNW 4.7 km/h 9.7 km/h 73% 0.0 mm 680 W/m2
10:37 20.9 °C 15.7 °C 1021.0 hPa NNW 1.4 km/h 6.4 km/h 72% 0.0 mm 694 W/m2
10:42 21 °C 16.2 °C 1021.0 hPa NNE 7.9 km/h 8 km/h 74% 0.0 mm 712 W/m2
10:47 21.2 °C 15.9 °C 1021.0 hPa ENE 3.2 km/h 11.3 km/h 72% 0.0 mm 689 W/m2
10:52 21.2 °C 15.7 °C 1021.0 hPa Calm   4.8 km/h 71% 0.0 mm 322 W/m2
10:57 21.2 °C 15.9 °C 1021.0 hPa NNW 3.2 km/h 4.8 km/h 72% 0.0 mm 780 W/m2
11:02 21.3 °C 16 °C 1021.0 hPa ENE 7.9 km/h 9.7 km/h 72% 0.0 mm 742 W/m2
11:07 21.4 °C 16.1 °C 1021.0 hPa Calm   3.2 km/h 72% 0.0 mm 798 W/m2
11:12 21.8 °C 16.3 °C 1021.0 hPa WNW 4.7 km/h 9.7 km/h 71% 0.0 mm 791 W/m2
11:17 21.9 °C 15.5 °C 1020.7 hPa WNW 4.7 km/h 8 km/h 67% 0.0 mm 795 W/m2
11:22 21.8 °C 15.6 °C 1020.7 hPa WNW 1.4 km/h 6.4 km/h 68% 0.0 mm 689 W/m2
11:27 21.9 °C 16 °C 1020.7 hPa ESE 3.2 km/h 9.7 km/h 69% 0.0 mm 612 W/m2
11:32 22.1 °C 15.7 °C 1020.7 hPa West 3.2 km/h 4.8 km/h 67% 0.0 mm 840 W/m2
11:37 22.1 °C 15 °C 1020.7 hPa North 1.4 km/h 8 km/h 64% 0.0 mm 912 W/m2
11:42 22.3 °C 15.9 °C 1020.7 hPa East 1.4 km/h 6.4 km/h 67% 0.0 mm 932 W/m2
11:47 22.8 °C 16.6 °C 1020.7 hPa SE 1.4 km/h 3.2 km/h 68% 0.0 mm 993 W/m2
11:52 23.3 °C 16.3 °C 1020.7 hPa ENE 3.2 km/h 6.4 km/h 65% 0.0 mm 998 W/m2
11:57 23.4 °C 16.2 °C 1020.7 hPa ENE 3.2 km/h 6.4 km/h 64% 0.0 mm 415 W/m2
12:03 23.2 °C 16.5 °C 1020.7 hPa ENE 3.2 km/h 6.4 km/h 66% 0.0 mm 401 W/m2
12:08 22.9 °C 16 °C 1020.7 hPa ENE 3.2 km/h 4.8 km/h 65% 0.0 mm 357 W/m2
12:13 22.8 °C 16.1 °C 1020.7 hPa East 3.2 km/h 4.8 km/h 66% 0.0 mm 294 W/m2
12:18 22.7 °C 16.3 °C 1020.7 hPa Calm   1.6 km/h 67% 0.0 mm 272 W/m2
12:23 22.7 °C 16.3 °C 1020.7 hPa SW 3.2 km/h 3.2 km/h 67% 0.0 mm 243 W/m2
12:28 22.6 °C 15.9 °C 1020.7 hPa SE 7.9 km/h 11.3 km/h 66% 0.0 mm 225 W/m2
12:33 22.3 °C 15.6 °C 1020.7 hPa Calm   4.8 km/h 66% 0.0 mm 288 W/m2
12:38 22.5 °C 16.5 °C 1020.7 hPa ESE 4.7 km/h 9.7 km/h 69% 0.0 mm 984 W/m2
12:43 22.8 °C 16.4 °C 1020.7 hPa ESE 3.2 km/h 9.7 km/h 67% 0.0 mm 1032 W/m2
12:48 22.9 °C 16.2 °C 1020.7 hPa NNW 1.4 km/h 4.8 km/h 66% 0.0 mm 387 W/m2
12:53 22.8 °C 16.4 °C 1020.7 hPa NE 3.2 km/h 9.7 km/h 67% 0.0 mm 371 W/m2
12:58 22.8 °C 16.4 °C 1020.7 hPa ENE 1.4 km/h 6.4 km/h 67% 0.0 mm 1056 W/m2
13:03 23.1 °C 16.9 °C 1020.7 hPa ESE 1.4 km/h 9.7 km/h 68% 0.0 mm 357 W/m2
13:08 23.2 °C 16.7 °C 1020.7 hPa SSE 3.2 km/h 3.2 km/h 67% 0.0 mm 330 W/m2
13:13 23.1 °C 16.6 °C 1020.7 hPa NE 3.2 km/h 8 km/h 67% 0.0 mm 332 W/m2
13:18 23 °C 16.3 °C 1020.7 hPa NNW 4.7 km/h 4.8 km/h 66% 0.0 mm 468 W/m2
13:23 22.9 °C 16.4 °C 1020.7 hPa East 6.4 km/h 8 km/h 67% 0.0 mm 380 W/m2
13:28 22.9 °C 16.4 °C 1020.7 hPa ENE 3.2 km/h 4.8 km/h 67% 0.0 mm 316 W/m2
13:33 22.8 °C 16.4 °C 1020.7 hPa ESE 3.2 km/h 3.2 km/h 67% 0.0 mm 285 W/m2
13:38 22.8 °C 16.4 °C 1020.7 hPa ENE 4.7 km/h 6.4 km/h 67% 0.0 mm 396 W/m2
13:43 22.8 °C 16.6 °C 1020.7 hPa SE 1.4 km/h 3.2 km/h 68% 0.0 mm 362 W/m2
13:48 23.2 °C 16.5 °C 1020.3 hPa NNW 1.4 km/h 3.2 km/h 66% 0.0 mm 1067 W/m2
13:53 23.5 °C 16.3 °C 1020.3 hPa NE 3.2 km/h 6.4 km/h 64% 0.0 mm 1069 W/m2
13:58 23.5 °C 16.5 °C 1020.3 hPa NE 6.4 km/h 6.4 km/h 65% 0.0 mm 308 W/m2
14:03 23.4 °C 16.2 °C 1020.3 hPa ESE 1.4 km/h 3.2 km/h 64% 0.0 mm 220 W/m2
14:08 23.3 °C 16.3 °C 1020.3 hPa Calm   6.4 km/h 65% 0.0 mm 156 W/m2
14:13 23.2 °C 16 °C 1020.3 hPa NW 1.4 km/h 8 km/h 64% 0.0 mm 139 W/m2
14:18 23 °C 16.1 °C 1020.3 hPa NW 1.4 km/h 4.8 km/h 65% 0.0 mm 153 W/m2
14:23 22.9 °C 16 °C 1020.0 hPa North 3.2 km/h 8 km/h 65% 0.0 mm 167 W/m2
14:28 22.8 °C 16.4 °C 1020.3 hPa West 3.2 km/h 12.9 km/h 67% 0.0 mm 174 W/m2
14:33 22.7 °C 16.5 °C 1020.3 hPa West 4.7 km/h 9.7 km/h 68% 0.0 mm 181 W/m2
14:38 22.4 °C 16.7 °C 1020.0 hPa WSW 4.7 km/h 12.9 km/h 70% 0.0 mm 200 W/m2
14:43 22.3 °C 16.3 °C 1020.0 hPa West 3.2 km/h 6.4 km/h 69% 0.0 mm 204 W/m2
14:48 22.3 °C 16.6 °C 1020.0 hPa West 3.2 km/h 9.7 km/h 70% 0.0 mm 169 W/m2
14:53 22.2 °C 16.5 °C 1020.0 hPa West 4.7 km/h 9.7 km/h 70% 0.0 mm 227 W/m2
14:58 22.4 °C 16.7 °C 1020.0 hPa WSW 4.7 km/h 9.7 km/h 70% 0.0 mm 773 W/m2
15:03 22.9 °C 16.9 °C 1020.0 hPa West 6.4 km/h 6.4 km/h 69% 0.0 mm 633 W/m2
15:08 23.6 °C 17.1 °C 1019.6 hPa West 6.4 km/h 11.3 km/h 67% 0.0 mm 1139 W/m2
15:13 23.9 °C 16.7 °C 1019.6 hPa West 9.7 km/h 9.7 km/h 64% 0.0 mm 779 W/m2
15:18 24.2 °C 17.4 °C 1019.6 hPa WSW 6.4 km/h 6.4 km/h 66% 0.0 mm 710 W/m2
15:23 24.3 °C 16.8 °C 1019.6 hPa West 9.7 km/h 12.9 km/h 63% 0.0 mm 740 W/m2
15:28 24.2 °C 16.7 °C 1019.6 hPa West 6.4 km/h 9.7 km/h 63% 0.0 mm 1053 W/m2
15:33 24.3 °C 16.6 °C 1019.6 hPa WNW 11.1 km/h 12.9 km/h 62% 0.0 mm 979 W/m2
15:38 24.2 °C 16.7 °C 1019.6 hPa NW 6.4 km/h 11.3 km/h 63% 0.0 mm 849 W/m2
15:43 24.1 °C 16.4 °C 1019.6 hPa WNW 6.4 km/h 8 km/h 62% 0.0 mm 374 W/m2
15:48 24.2 °C 16.2 °C 1019.6 hPa NW 4.7 km/h 9.7 km/h 61% 0.0 mm 963 W/m2
15:53 24.5 °C 16.2 °C 1019.6 hPa North 1.4 km/h 4.8 km/h 60% 0.0 mm 881 W/m2
15:58 24.9 °C 16.3 °C 1019.6 hPa NE 3.2 km/h 8 km/h 59% 0.0 mm 884 W/m2
16:03 25.2 °C 16.3 °C 1019.6 hPa ENE 7.9 km/h 14.5 km/h 58% 0.0 mm 851 W/m2
16:08 25.6 °C 17 °C 1019.3 hPa East 4.7 km/h 4.8 km/h 59% 0.0 mm 826 W/m2
16:13 25.7 °C 16.5 °C 1019.3 hPa SW 3.2 km/h 8 km/h 57% 0.0 mm 816 W/m2
16:18 25.5 °C 16.6 °C 1019.3 hPa WNW 4.7 km/h 9.7 km/h 58% 0.0 mm 234 W/m2
16:23 25.1 °C 16.3 °C 1019.3 hPa NW 4.7 km/h 6.4 km/h 58% 0.0 mm 199 W/m2
16:28 24.8 °C 16.2 °C 1019.3 hPa North 3.2 km/h 8 km/h 59% 0.0 mm 756 W/m2
16:33 24.8 °C 16.2 °C 1019.3 hPa WSW 4.7 km/h 11.3 km/h 59% 0.0 mm 262 W/m2
16:38 24.7 °C 16.4 °C 1019.3 hPa WNW 11.1 km/h 11.3 km/h 60% 0.0 mm 729 W/m2
16:43 24.7 °C 16.1 °C 1019.3 hPa West 3.2 km/h 11.3 km/h 59% 0.0 mm 816 W/m2
16:48 24.8 °C 16.2 °C 1019.0 hPa WNW 4.7 km/h 11.3 km/h 59% 0.0 mm 810 W/m2
16:53 25.1 °C 16.5 °C 1019.0 hPa WSW 7.9 km/h 11.3 km/h 59% 0.0 mm 795 W/m2
16:58 24.9 °C 16.1 °C 1019.0 hPa West 6.4 km/h 8 km/h 58% 0.0 mm 301 W/m2
17:03 24.7 °C 15.9 °C 1019.0 hPa West 3.2 km/h 6.4 km/h 58% 0.0 mm 229 W/m2
17:08 24.6 °C 16.3 °C 1019.0 hPa WNW 6.4 km/h 6.4 km/h 60% 0.0 mm 216 W/m2
17:13 24.6 °C 16.6 °C 1019.0 hPa NNE 13 km/h 12.9 km/h 61% 0.0 mm 221 W/m2
17:18 24.6 °C 16.3 °C 1019.0 hPa West 4.7 km/h 8 km/h 60% 0.0 mm 214 W/m2
17:23 24.4 °C 16.4 °C 1019.0 hPa NW 4.7 km/h 6.4 km/h 61% 0.0 mm 169 W/m2
17:28 24.2 °C 15.9 °C 1019.0 hPa NNW 4.7 km/h 9.7 km/h 60% 0.0 mm 139 W/m2
17:33 24.1 °C 16.1 °C 1019.0 hPa ESE 4.7 km/h 8 km/h 61% 0.0 mm 125 W/m2
17:38 24.1 °C 16.1 °C 1019.0 hPa ENE 1.4 km/h 4.8 km/h 61% 0.0 mm 134 W/m2
17:43 24.1 °C 16.1 °C 1019.0 hPa West 6.4 km/h 8 km/h 61% 0.0 mm 139 W/m2
17:48 23.9 °C 15.9 °C 1019.0 hPa NNE 3.2 km/h 11.3 km/h 61% 0.0 mm 153 W/m2
17:53 23.9 °C 16.2 °C 1019.0 hPa WNW 6.4 km/h 11.3 km/h 62% 0.0 mm 155 W/m2
17:58 23.8 °C 16.1 °C 1019.0 hPa NNW 3.2 km/h 6.4 km/h 62% 0.0 mm 151 W/m2
18:03 23.8 °C 16.1 °C 1019.3 hPa WSW 4.7 km/h 8 km/h 62% 0.0 mm 132 W/m2
18:08 23.8 °C 16.1 °C 1019.3 hPa NNW 1.4 km/h 4.8 km/h 62% 0.0 mm 113 W/m2
18:13 23.7 °C 16 °C 1019.3 hPa West 4.7 km/h 6.4 km/h 62% 0.0 mm 105 W/m2
18:18 23.8 °C 16.1 °C 1019.3 hPa Calm   4.8 km/h 62% 0.0 mm 114 W/m2
18:23 23.8 °C 16.1 °C 1019.3 hPa East 3.2 km/h 4.8 km/h 62% 0.0 mm 98 W/m2
18:28 23.8 °C 16.3 °C 1019.3 hPa Calm   4.8 km/h 63% 0.0 mm 97 W/m2
18:33 23.8 °C 16.3 °C 1019.3 hPa ENE 3.2 km/h 6.4 km/h 63% 0.0 mm 95 W/m2
18:38 23.7 °C 16 °C 1019.3 hPa ESE 1.4 km/h 6.4 km/h 62% 0.0 mm 86 W/m2
18:43 23.6 °C 15.9 °C 1019.3 hPa NE 1.4 km/h 3.2 km/h 62% 0.0 mm 88 W/m2
18:48 23.6 °C 15.9 °C 1019.3 hPa ESE 3.2 km/h 6.4 km/h 62% 0.0 mm 90 W/m2
18:53 23.6 °C 15.9 °C 1019.3 hPa ENE 3.2 km/h 4.8 km/h 62% 0.0 mm 86 W/m2
18:58 23.6 °C 15.9 °C 1019.3 hPa NNW 3.2 km/h 6.4 km/h 62% 0.0 mm 70 W/m2
19:03 23.6 °C 15.6 °C 1019.3 hPa North 1.4 km/h 4.8 km/h 61% 0.0 mm 65 W/m2
19:08 23.6 °C 15.6 °C 1019.3 hPa ENE 1.4 km/h 3.2 km/h 61% 0.0 mm 49 W/m2
19:13 23.6 °C 15.6 °C 1019.3 hPa Calm   6.4 km/h 61% 0.0 mm 42 W/m2
19:18 23.6 °C 16.1 °C 1019.3 hPa East 4.7 km/h 12.9 km/h 63% 0.0 mm 42 W/m2
19:23 23.4 °C 16.7 °C 1019.3 hPa ENE 1.4 km/h 3.2 km/h 66% 0.0 mm 51 W/m2
19:28 23.2 °C 16.7 °C 1019.3 hPa East 1.4 km/h 12.9 km/h 67% 0.0 mm 56 W/m2
19:33 22.8 °C 16.6 °C 1019.3 hPa SW 3.2 km/h 3.2 km/h 68% 0.0 mm 60 W/m2
19:38 22.6 °C 16.4 °C 1019.3 hPa Calm   3.2 km/h 68% 0.0 mm 65 W/m2
19:43 22.4 °C 16.4 °C 1019.3 hPa Calm     69% 0.0 mm 65 W/m2
19:48 22.4 °C 16.9 °C 1019.3 hPa ESE 3.2 km/h 3.2 km/h 71% 0.0 mm 67 W/m2
19:53 22.2 °C 16.7 °C 1019.3 hPa Calm   1.6 km/h 71% 0.0 mm 72 W/m2
19:58 21.9 °C 16.6 °C 1019.3 hPa ESE 1.4 km/h 4.8 km/h 72% 0.0 mm 79 W/m2
20:03 21.8 °C 17.2 °C 1019.3 hPa Calm   3.2 km/h 75% 0.0 mm 86 W/m2
20:08 21.7 °C 17.5 °C 1019.3 hPa Calm   4.8 km/h 77% 0.0 mm 70 W/m2
20:13 21.5 °C 17.9 °C 1019.3 hPa Calm     80% 0.2 mm 69 W/m2
20:18 21.3 °C 18.1 °C 1019.3 hPa Calm   1.6 km/h 82% 0.5 mm 69 W/m2
20:23 21.1 °C 18.3 °C 1019.3 hPa Calm     84% 0.5 mm 70 W/m2
20:28 20.6 °C 18 °C 1019.3 hPa Calm     85% 0.8 mm 69 W/m2
20:34 20.3 °C 17.9 °C 1019.3 hPa Calm   1.6 km/h 86% 1.0 mm 63 W/m2
20:39 19.9 °C 17.9 °C 1019.3 hPa Calm     88% 1.0 mm 53 W/m2
20:44 19.8 °C 17.8 °C 1019.3 hPa WSW 1.4 km/h 1.6 km/h 88% 1.0 mm 44 W/m2
20:49 19.5 °C 17.6 °C 1019.3 hPa Calm     89% 1.3 mm 39 W/m2
20:54 19.3 °C 17.6 °C 1019.3 hPa Calm   1.6 km/h 90% 1.3 mm 35 W/m2
20:59 19.2 °C 17.5 °C 1019.6 hPa Calm     90% 1.3 mm 26 W/m2
21:04 19.1 °C 17.6 °C 1019.6 hPa WSW 1.4 km/h 1.6 km/h 91% 1.3 mm 19 W/m2
21:09 18.9 °C 17.2 °C 1019.6 hPa WSW 1.4 km/h 3.2 km/h 90% 1.3 mm 16 W/m2
21:14 18.7 °C 17.2 °C 1019.6 hPa Calm     91% 1.0 mm 16 W/m2
21:19 18.7 °C 17.2 °C 1019.6 hPa Calm     91% 0.8 mm 14 W/m2
21:24 18.6 °C 17.3 °C 1019.6 hPa Calm     92% 0.5 mm 11 W/m2
21:29 18.5 °C 17.2 °C 1019.6 hPa Calm   1.6 km/h 92% 0.5 mm 9 W/m2
21:34 18.4 °C 17.1 °C 1019.6 hPa Calm     92% 0.2 mm 9 W/m2
21:39 18.3 °C 17 °C 1019.6 hPa Calm   1.6 km/h 92% 0.2 mm 5 W/m2
21:44 18.2 °C 17 °C 1019.6 hPa Calm     93% 0.2 mm 0 W/m2
21:49 18.2 °C 17 °C 1019.6 hPa WSW 1.4 km/h 3.2 km/h 93% 0.0 mm 0 W/m2
21:54 18.2 °C 17 °C 1020.0 hPa Calm   1.6 km/h 93% 0.0 mm 0 W/m2
21:59 18.1 °C 16.9 °C 1020.0 hPa WSW 1.4 km/h 3.2 km/h 93% 0.0 mm 0 W/m2
22:04 18.1 °C 16.9 °C 1020.0 hPa WSW 1.4 km/h 3.2 km/h 93% 0.0 mm 0 W/m2
22:09 18.1 °C 16.9 °C 1020.0 hPa WSW 1.4 km/h 1.6 km/h 93% 0.0 mm 0 W/m2
22:14 18 °C 17 °C 1020.0 hPa Calm   3.2 km/h 94% 0.0 mm 0 W/m2
22:19 17.9 °C 16.9 °C 1020.0 hPa Calm   1.6 km/h 94% 0.0 mm 0 W/m2
22:24 17.9 °C 16.9 °C 1020.0 hPa Calm   3.2 km/h 94% 0.0 mm 0 W/m2
22:29 17.8 °C 16.8 °C 1020.0 hPa Calm   1.6 km/h 94% 0.0 mm 0 W/m2
22:34 17.7 °C 16.7 °C 1020.0 hPa Calm     94% 0.0 mm 0 W/m2
22:39 17.7 °C 16.7 °C 1020.0 hPa Calm     94% 0.0 mm 0 W/m2
22:44 17.6 °C 16.6 °C 1020.0 hPa Calm     94% 0.0 mm 0 W/m2
22:49 17.6 °C 16.6 °C 1020.3 hPa Calm     94% 0.0 mm 0 W/m2
22:54 17.6 °C 16.6 °C 1020.3 hPa Calm     94% 0.0 mm 0 W/m2
22:59 17.5 °C 16.5 °C 1020.3 hPa Calm     94% 0.0 mm 0 W/m2
23:04 17.4 °C 16.4 °C 1020.3 hPa Calm     94% 0.0 mm 0 W/m2
23:09 17.4 °C 16.4 °C 1020.3 hPa Calm     94% 0.0 mm 0 W/m2
23:14 17.4 °C 16.6 °C 1020.3 hPa Calm     95% 0.0 mm 0 W/m2
23:19 17.4 °C 16.4 °C 1020.7 hPa Calm     94% 0.0 mm 0 W/m2
23:24 17.4 °C 16.6 °C 1020.3 hPa Calm     95% 0.0 mm 0 W/m2
23:29 17.4 °C 16.6 °C 1020.3 hPa Calm     95% 0.0 mm 0 W/m2
23:34 17.3 °C 16.5 °C 1020.3 hPa Calm     95% 0.0 mm 0 W/m2
23:39 17.4 °C 16.6 °C 1020.3 hPa Calm     95% 0.0 mm 0 W/m2
23:44 17.3 °C 16.5 °C 1020.7 hPa Calm     95% 0.0 mm 0 W/m2
23:49 17.3 °C 16.5 °C 1020.3 hPa Calm     95% 0.0 mm 0 W/m2
23:54 17.3 °C 16.5 °C 1020.7 hPa Calm     95% 0.0 mm 0 W/m2
23:59 17.4 °C 16.6 °C 1020.7 hPa Calm     95% 0.0 mm 0 W/m2
Juneau County Weather
Compliments of Weather Underground - 4 mb